Flag for India Weather past 2 weeks in Tiruvarur, Tamil Nadu, India

Now
79 °F

Passing clouds.


Feels Like: 80 °F
Forecast: 71 / 86 °F
Wind: 7 mph from East

Location: Tiruchchirapalli

Current Time: Jan 31, 2015 at 9:55:40 PM

Latest Report: Jan 31, 2015 at 8:40 PM


Visibility: 4 mi

Pressure: 29.98 "Hg

Humidity: 58%

Dew point: 63 °F

Location of TiruvarurLocation

Historic Weather in Tiruvarur — Graph

°F

Tiruvarur temperature yesterday

Maximum temperature yesterday: 86 °F (at 1:40 PM)
Minimum temperature yesterday: 72 °F (at 5:40 AM)
Average temperature yesterday: 79 °F

Past Weeks' High & Low Weather Summary

 TemperatureHumidityPressure
High90 °F (Jan 17, 2:40 PM)94% (Jan 17, 1:40 AM)30.09 "Hg (Jan 17, 1:40 AM)
Low66 °F (Jan 22, 6:40 AM)40% (Jan 19, 3:40 PM)29.80 "Hg (Jan 28, 3:40 PM)
Average78 °F71%29.96 "Hg
* Reported Jan 16 8:40 PM — Jan 31 8:40 PM, Tiruvarur, Weather by CustomWeather, © 2014

Note: Actual official high and low records may vary slightly from our data, if they occured in-between our weather recording intervals... More about our weather records

Advertising

Tiruvarur weather history for previous 24 hours

 ConditionsComfort  
Time TempWeatherWind HumidityBarometerVisibility
8:40 PM
Jan 31
79 °FPassing clouds.7 mph58%29.98 "Hg4 mi
7:40 PM82 °FPassing clouds.8 mph51%29.95 "Hg4 mi
6:40 PM84 °FPassing clouds.8 mph45%29.92 "Hg4 mi
5:40 PM86 °FPassing clouds.12 mph46%29.92 "Hg5 mi
4:40 PM88 °FPassing clouds.14 mph46%29.89 "Hg5 mi
3:40 PM88 °FPassing clouds.12 mph49%29.89 "Hg5 mi
2:40 PM86 °FScattered clouds.13 mph49%29.92 "Hg4 mi
1:40 PM86 °FScattered clouds.9 mph52%29.95 "Hg3 mi
12:40 PM86 °FScattered clouds.12 mph52%29.98 "Hg3 mi
11:40 AM84 °FScattered clouds.10 mph55%30.01 "Hg3 mi
9:40 AM79 °FHaze.12 mph70%30.04 "Hg2 mi
8:40 AM75 °FFog.9 mph78%30.04 "Hg1 mi
7:40 AM72 °FFog.7 mph88%30.01 "Hg1 mi
6:40 AM72 °FFog.3 mph88%29.98 "Hg1 mi
5:40 AM72 °FFog.6 mph88%29.95 "Hg1 mi
4:40 AM72 °FFog.7 mph88%29.92 "Hg2 mi
3:40 AM72 °FFog.6 mph88%29.92 "Hg2 mi
2:40 AM73 °FFog.8 mph83%29.95 "Hg2 mi
1:40 AM73 °FFog.7 mph83%29.95 "Hg2 mi
12:40 AM73 °FFog.5 mph89%29.98 "Hg2 mi
11:40 PM
Jan 30
75 °FFog.5 mph83%29.98 "Hg2 mi
10:40 PM75 °FFog.5 mph83%30.01 "Hg2 mi
9:40 PM77 °FFog.7 mph79%30.01 "Hg3 mi
Weather by CustomWeather, © 2014

See weather overviewHow to use our weather pages